Theta_e
305 299 297 300 303 305 305 305 304 308 312 310 309 311 313 314 315 315 316 317 319 321 324 325 329 333 333 336 340 340 341 350 344 339 335 335 333 336 337 337 339 339 341 339
301 296 302 304 304 303 304 303 304 308 312 310 309 309 312 314 314 315 317 318 320 321 321 324 329 333 333 336 338 339 339 344 343 340 342 337 337 336 337 337 340 341 341 341
297 301 304 302 301 301 302 302 303 304 309 309 309 306 309 313 315 315 316 319 320 320 320 323 330 332 334 335 338 338 340 342 343 346 341 341 339 338 334 334 336 338 338 337
299 302 302 301 300 302 298 305 305 304 303 299 308 297 306 310 311 313 316 319 319 320 321 325 331 332 334 335 338 339 341 341 341 343 343 342 333 331 335 337 338 338 339 338
295 299 299 299 300 303 301 306 305 304 302 301 301 298 302 308 307 311 315 318 320 319 322 327 330 332 334 336 336 339 340 340 341 342 341 337 334 332 334 335 337 339 339 338
298 304 303 301 304 304 305 303 304 305 302 294 300 299 300 303 307 311 315 318 319 319 326 329 331 333 333 335 336 338 339 339 341 339 339 339 335 335 333 334 336 336 341 340
294 297 302 304 300 304 304 300 293 293 292 294 302 299 302 308 311 313 315 317 318 323 326 328 329 330 332 333 334 336 337 338 339 338 337 337 338 337 335 336 335 335 340 338
288 287 298 303 301 300 301 300 294 288 291 294 302 297 302 313 315 317 316 316 322 325 327 328 329 330 331 332 334 334 336 336 336 335 335 336 338 334 335 335 337 340 340 338
290 289 301 302 304 303 300 298 304 298 301 297 301 306 311 313 313 314 315 316 319 325 327 328 329 330 331 332 334 335 335 335 334 334 336 336 336 336 335 336 339 340 340 338
296 290 296 301 303 303 302 306 296 300 292 292 298 301 303 307 310 313 313 314 318 326 326 328 329 330 331 333 334 335 335 332 333 334 334 334 338 335 335 336 335 337 337 335
296 293 296 299 299 297 299 299 300 302 300 294 293 299 309 309 311 312 313 316 319 325 326 327 328 330 331 333 333 333 332 332 332 333 334 336 335 336 334 335 335 338 338 337
297 294 292 296 301 304 302 300 302 298 297 300 300 299 309 311 313 314 316 318 322 326 326 327 328 329 330 331 332 331 331 331 332 333 334 336 335 334 336 334 335 335 335 336
296 293 288 293 299 302 299 302 304 304 305 299 296 300 310 313 314 317 318 320 325 325 325 326 327 328 329 330 330 328 329 330 331 331 333 335 335 334 335 335 335 335 335 335
296 293 292 289 295 299 297 300 303 303 299 300 300 300 304 311 314 317 320 323 324 324 324 325 327 328 329 330 328 327 327 329 331 331 332 333 335 335 336 336 334 334 335 333
293 291 293 294 296 299 299 299 300 301 302 300 303 302 305 313 316 316 321 322 322 322 323 325 326 327 329 329 326 326 327 329 330 330 331 333 334 334 335 334 334 334 333 334
292 291 295 290 293 297 297 300 301 301 303 304 304 303 308 311 312 313 318 320 321 322 323 325 326 327 328 328 325 326 327 328 329 329 330 332 332 332 332 334 335 334 333 333
292 293 293 287 293 295 292 299 301 302 304 304 300 303 309 308 309 311 314 319 321 323 324 325 327 327 329 328 326 326 327 328 328 329 329 331 331 331 333 330 332 334 334 333
293 291 294 289 291 286 298 305 304 302 304 306 306 305 309 309 312 314 317 319 321 324 325 327 328 329 331 329 326 328 327 327 326 327 328 329 331 330 331 329 332 334 335 332
297 292 290 289 288 295 299 303 302 302 302 308 307 307 309 312 313 312 320 322 322 325 327 329 330 331 332 329 327 327 326 326 325 326 327 328 330 330 329 328 331 336 335 331
297 296 291 292 287 286 296 306 309 309 299 308 309 310 311 312 305 312 320 321 325 327 329 330 331 332 332 330 328 327 325 325 323 325 327 329 330 331 329 330 331 334 336 330
290 292 289 289 292 296 303 306 309 297 298 309 310 311 311 310 314 318 319 320 324 326 329 332 332 331 333 331 329 326 325 324 324 326 327 328 332 334 334 333 332 332 335 334
289 288 290 290 289 287 303 306 301 305 309 310 311 312 311 314 315 318 319 321 324 324 327 330 331 332 334 331 328 326 325 326 325 325 326 328 332 332 333 333 331 331 333 332
291 293 293 296 293 298 302 303 308 309 307 309 311 313 313 314 316 318 320 321 323 326 326 330 332 332 334 332 329 326 327 327 325 325 326 328 331 332 335 332 330 327 330 331
292 297 294 295 297 300 300 304 306 308 306 310 312 313 314 313 316 318 321 323 323 327 326 329 331 331 332 332 331 329 328 327 325 325 326 328 328 330 334 332 330 326 325 325
294 295 292 294 298 302 300 304 305 307 308 310 311 312 313 314 316 318 320 323 325 327 327 329 330 331 332 333 331 331 328 326 327 327 326 327 327 328 332 333 330 327 330 320
298 296 293 291 298 298 299 305 307 306 308 308 308 310 314 315 315 318 320 324 328 327 327 328 331 331 332 332 331 331 328 326 330 330 326 325 326 326 328 330 329 298 304 303
Wind_Speed
23 21 27 42 37 32 31 26 33 31 27 30 30 31 22 24 27 25 23 18 22 23 22 17 11 1 4 4 8 12 13 12 12 11 11 9 8 7 6 6 6 7 5 6
26 31 47 27 32 32 32 31 32 29 28 25 25 29 24 25 23 26 25 23 21 25 16 15 4 4 5 8 10 12 13 13 12 10 8 7 6 6 5 4 3 4 6 6
31 41 26 36 32 31 32 31 29 32 25 26 26 26 30 29 25 24 29 28 24 18 20 16 6 5 8 10 12 13 14 15 12 9 6 3 4 2 5 7 7 6 6 7
27 33 35 34 34 35 33 30 28 27 23 21 23 22 33 25 25 25 26 21 16 22 19 5 7 8 10 11 13 15 15 15 11 10 8 7 5 5 2 1 4 6 5 3
30 30 37 35 42 32 36 24 27 25 20 25 29 20 20 21 23 24 18 20 22 15 15 10 10 11 11 13 13 14 16 14 12 9 7 6 6 3 4 3 1 4 2 7
29 28 30 40 34 30 29 28 27 23 19 21 27 23 22 22 24 21 23 21 19 19 9 9 11 12 13 14 15 15 15 12 11 9 5 4 2 3 3 2 3 3 4 5
30 31 29 33 32 36 30 26 17 20 20 28 19 21 22 23 20 25 22 19 13 14 13 13 15 15 16 17 17 14 14 12 11 9 7 5 5 3 3 5 2 4 4 4
25 28 34 28 31 34 31 30 18 33 15 20 24 25 21 20 18 21 12 10 12 14 14 15 17 17 18 18 17 15 14 13 11 9 7 5 5 4 5 1 2 5 2 3
19 32 27 34 24 27 39 30 33 25 24 17 17 17 16 17 12 14 18 17 13 15 15 16 17 17 17 17 16 15 13 12 10 8 6 6 4 3 1 2 2 2 3 4
17 12 32 29 32 30 34 26 24 23 28 22 14 12 9 7 16 19 18 15 18 16 16 17 17 17 16 16 14 13 12 12 10 8 7 5 3 2 2 2 2 3 1 0
19 5 17 33 34 30 25 24 31 20 19 16 16 10 3 4 12 8 16 16 19 18 18 18 18 18 17 16 15 13 12 12 10 8 7 5 5 3 2 2 1 1 2 4
13 7 17 22 18 32 31 32 30 19 26 16 12 6 6 4 16 5 12 15 20 18 18 19 19 18 17 16 15 13 12 12 10 9 7 5 4 4 4 3 3 1 3 4
10 11 15 7 22 28 32 34 27 27 15 21 14 8 6 6 4 10 13 18 17 18 20 20 19 18 17 16 14 13 12 11 11 9 9 6 5 6 5 3 3 3 4 3
7 15 20 11 8 21 29 32 25 27 17 16 21 14 6 10 10 7 5 12 16 18 20 19 18 17 17 15 14 14 12 11 11 9 9 8 5 6 6 5 2 3 6 4
5 14 29 17 16 25 32 26 30 24 25 20 21 14 11 11 14 10 9 12 17 19 19 19 18 17 17 16 14 14 12 12 11 9 8 6 6 6 8 8 5 4 6 7
6 9 23 18 13 25 12 16 27 24 29 20 9 18 10 11 7 8 10 11 15 17 18 19 18 18 18 16 15 14 13 12 11 10 9 12 8 6 4 7 6 4 8 8
6 7 13 12 18 23 13 15 15 22 23 21 16 5 8 7 7 7 4 8 14 16 17 18 18 18 16 16 15 14 13 12 12 10 10 9 7 9 4 4 9 6 7 7
14 11 11 9 14 12 7 11 13 12 20 16 16 10 15 7 10 5 7 3 10 17 18 17 16 16 16 16 15 14 14 13 13 11 11 9 9 10 6 5 9 7 7 8
15 6 7 5 16 7 8 5 12 17 9 10 5 13 14 6 9 6 14 14 5 14 15 15 15 16 16 17 16 15 14 14 13 12 12 11 9 11 7 7 7 6 7 6
15 8 5 6 7 9 1 11 6 3 12 9 8 6 8 8 7 9 12 14 16 5 14 15 16 16 17 17 16 16 15 14 14 13 12 11 10 10 8 8 5 7 6 6
9 6 10 8 7 6 14 13 6 13 8 6 7 6 5 7 12 12 11 11 10 10 7 16 16 16 17 17 17 16 15 15 14 13 12 12 10 13 7 9 6 4 9 8
7 5 5 6 3 3 21 1 6 8 6 7 6 8 8 9 10 12 11 9 9 7 12 16 15 16 17 17 17 17 16 15 14 14 13 13 11 9 10 9 7 6 10 9
2 6 7 8 4 1 11 11 13 12 9 9 10 9 9 10 10 11 10 9 9 9 11 13 15 17 17 18 17 16 16 16 15 15 14 14 13 9 14 10 9 7 6 11
3 10 4 7 9 2 6 12 12 10 9 11 11 11 11 11 10 11 10 8 8 9 11 12 17 18 18 18 18 16 17 16 16 15 15 14 13 11 12 10 8 8 7 6
2 3 7 6 10 6 8 11 13 14 12 11 13 13 12 11 10 11 11 9 8 10 11 13 16 17 19 19 19 17 18 18 16 15 14 14 12 12 11 10 9 8 8 4
11 10 6 4 12 10 13 14 15 15 11 12 13 15 13 11 12 13 12 10 8 9 12 12 16 16 19 20 20 19 19 19 16 14 13 13 12 12 11 10 8 11 9 11
Wind_Direction
201 211 217 220 218 237 241 247 247 251 237 244 261 266 248 257 258 260 260 261 272 281 287 289 272 1 271 206 187 187 190 171 169 178 191 191 203 199 219 219 226 242 251 245
216 214 222 226 229 229 242 251 252 260 260 254 249 261 266 257 257 271 275 264 271 277 277 276 237 156 179 179 181 181 176 163 182 179 202 197 205 205 218 224 187 222 246 230
222 226 229 227 235 235 233 235 242 252 259 258 267 266 262 257 265 266 270 271 267 274 266 266 153 170 170 175 171 166 165 166 188 167 167 156 129 271 215 217 214 210 223 249
237 237 232 228 231 229 235 228 240 251 259 259 254 263 256 259 254 259 257 257 250 251 260 204 148 167 176 167 164 158 158 167 171 165 165 186 222 246 29 8 124 177 218 240
239 230 231 235 225 225 242 234 235 240 248 259 253 257 266 273 264 265 258 257 257 255 236 150 172 168 167 157 158 153 154 166 150 181 167 176 244 182 229 248 205 230 219 232
242 244 236 234 240 225 239 235 242 245 247 248 245 246 263 261 264 262 254 255 246 231 144 150 153 156 151 154 149 153 152 152 157 165 165 208 131 282 312 297 290 265 233 227
244 245 247 237 223 236 223 223 222 228 224 245 247 243 258 267 270 249 243 257 225 157 152 152 158 160 157 153 150 152 152 152 159 159 168 175 184 203 252 274 8 268 224 216
223 231 230 224 227 217 222 211 218 217 221 240 230 242 255 265 240 250 256 279 143 160 153 158 166 154 156 153 153 155 155 154 159 164 160 164 178 210 232 226 309 254 9 184
265 229 228 226 227 230 213 210 220 249 229 246 259 232 224 250 238 244 239 221 195 164 156 162 157 160 155 153 158 153 155 153 161 162 156 175 195 257 330 301 270 263 222 193
286 276 231 228 219 235 231 209 208 224 240 243 230 253 212 223 226 225 237 214 179 155 164 162 157 158 155 154 154 153 158 155 159 154 169 162 179 154 247 205 261 226 161 126
288 276 269 233 200 211 216 210 213 226 230 236 252 245 159 253 274 231 205 196 165 163 166 159 159 158 154 155 153 154 159 158 161 160 168 126 212 88 141 150 94 295 129 201
300 288 261 242 285 211 213 218 203 223 216 237 271 187 95 225 247 257 195 163 153 167 161 160 159 160 157 160 151 158 160 160 163 165 155 171 110 102 131 116 140 156 134 194
354 249 255 225 233 210 226 202 209 216 231 209 229 183 144 264 189 226 185 150 149 164 161 160 160 163 161 160 157 162 163 162 162 170 144 146 110 121 140 143 133 140 123 193
297 267 265 238 258 199 218 205 208 195 220 196 223 106 185 209 138 121 89 126 158 165 163 162 165 164 163 160 164 161 167 161 158 174 164 143 128 116 129 124 132 127 121 140
237 264 245 239 299 314 197 219 206 206 211 223 195 218 204 138 85 80 130 157 157 164 171 167 169 165 164 163 163 161 166 160 160 172 165 132 138 132 150 145 119 140 129 98
267 274 259 257 251 278 269 222 201 212 202 234 189 182 209 273 6 105 125 163 169 172 180 172 171 168 168 165 168 160 166 160 164 172 170 151 168 122 124 118 124 152 123 128
261 295 279 227 226 260 241 208 230 206 201 216 225 160 221 233 258 281 220 163 187 185 186 177 176 171 168 166 168 165 163 163 165 173 167 161 170 142 175 137 112 126 117 131
269 294 292 244 220 228 226 206 232 232 205 212 226 207 240 254 227 218 204 92 191 193 187 178 176 171 169 165 166 164 162 168 171 176 165 168 177 140 187 142 108 126 125 134
238 270 292 238 208 220 146 42 178 198 178 28 313 208 231 329 354 59 22 352 275 200 185 175 176 171 170 166 164 165 166 172 176 176 166 171 182 140 146 124 120 136 128 131
226 199 257 291 177 211 28 341 15 314 114 33 9 20 2 343 233 65 3 340 342 334 186 174 171 169 173 168 167 169 169 176 181 174 170 169 181 136 146 122 136 129 133 129
200 233 256 282 256 103 9 324 291 211 75 21 12 16 351 304 336 334 325 314 319 323 263 167 170 176 175 170 171 175 172 180 182 169 168 165 176 141 128 130 140 145 121 130
185 215 228 254 278 360 338 335 11 44 47 36 15 16 347 327 309 306 308 305 295 285 282 174 174 173 174 175 176 179 177 178 178 170 169 162 166 165 143 147 153 151 118 125
285 34 314 357 51 204 328 44 40 21 16 17 351 358 344 323 331 318 307 296 280 269 254 195 174 173 174 179 182 182 177 178 175 172 170 160 166 184 144 158 159 156 176 139
308 11 313 297 11 75 348 338 347 12 359 336 341 341 343 341 323 318 313 303 280 258 235 216 177 177 177 182 184 186 177 180 175 173 171 164 172 182 162 166 174 170 181 170
231 333 326 317 351 54 26 336 323 327 338 337 334 340 330 333 335 330 319 301 280 273 227 215 188 182 178 182 185 187 178 182 175 174 173 172 177 185 173 189 174 194 179 179
359 2 348 317 334 324 321 317 306 308 330 332 332 325 324 332 342 334 330 318 297 273 244 205 193 190 180 182 187 187 182 183 174 174 177 179 179 182 179 189 157 49 72 96